Regional Weather Roundup
Issued by NWS

Home | Current Version | Previous Version | Text Only | Print | Product List | Glossary Off
Versions: 1 2 3 4 5 6 7 8 9 10 11 12 13 14 15 16 17 18 19 20 21 22 23 24 25 26 27 28 29 30 31 32 33 34 35 36 37 38 39 40 41 42 43 44 45 46 47 48 49 50

000
ASUS43 KOAX 281802
RWRNE

WEATHER ROUNDUP FOR NEBRASKA
NATIONAL WEATHER SERVICE OMAHA NE
100 PM CDT THU JUL 28 2016

NOTES: SATELLITE DATA IS BEING USED TO AUGMENT CLOUD COVER ABOVE
       12000 FEET.
       "FAIR" INDICATES FEW OR NO CLOUDS BELOW 12,000 FEET WITH NO
       SIGNIFICANT WEATHER AND/OR OBSTRUCTIONS TO VISIBILITY.

  * THESE STATIONS DO NOT REPORT WEATHER SUCH AS RAIN...SNOW OR FOG.

NEZ001>004-019>022-054>056-281900-
NEBRASKA PANHANDLE

CITY           SKY/WX    TMP DP  RH WIND       PRES   REMARKS
SCOTTSBLUFF    CLOUDY    67  50  54 SE15      30.18F
6HR MIN TEMP:  59; 6HR MAX TEMP:  67; 6HR PCP:  0.33;

ALLIANCE       CLOUDY    66  60  81 SE9       30.18F
6HR MIN TEMP:  58; 6HR MAX TEMP:  66; 6HR PCP:  0.57;

CHADRON        MOSUNNY   69  58  67 CALM      30.15F
6HR MIN TEMP:  62; 6HR MAX TEMP:  69; 6HR PCP:  0.13;

SIDNEY         CLOUDY    63  57  81 NE18      30.25F
6HR MIN TEMP:  59; 6HR MAX TEMP:  66; 6HR PCP:  0.07;

$$

NEZ057>060-069>072-079>082-281900-
SOUTHWEST NEBRASKA

CITY           SKY/WX    TMP DP  RH WIND       PRES   REMARKS
NORTH PLATTE   RAIN      67  63  87 NW15G31   30.13R
6HR MIN TEMP:  61; 6HR MAX TEMP:  70; 6HR PCP:  0.86;

IMPERIAL       CLOUDY    70  63  78 SE10      30.11F
6HR MIN TEMP:  63; 6HR MAX TEMP:  70; 6HR PCP: TRACE;

LEXINGTON      CLOUDY    69  66  89 S13       30.04F
MCCOOK         CLOUDY    78  64  61 SE9       30.07F
6HR MIN TEMP:  66; 6HR MAX TEMP:  80;

OGALLALA       TSTM      67  63  87 NW7       30.20S
$$

NEZ005>010-023>029-035>040-094-281900-
NORTH CENTRAL NEBRASKA

CITY           SKY/WX    TMP DP  RH WIND       PRES   REMARKS
VALENTINE      PTSUNNY   72  63  73 SW9       30.14S
6HR MIN TEMP:  57; 6HR MAX TEMP:  72;

AINSWORTH      CLOUDY    71  65  82 CALM      30.15R
BROKEN BOW     CLOUDY    71  66  84 E6        30.08F
6HR MIN TEMP:  59; 6HR MAX TEMP:  71;

O`NEILL        MOSUNNY   76  63  64 NE5       30.10F
ORD            CLOUDY    78  63  59 CALM      30.06F
6HR MIN TEMP:  61; 6HR MAX TEMP:  78;

THEDFORD       LGT RAIN  67  63  85 NW9       30.19R
$$

NEZ041-046>049-061>064-073>077-083>087-281900-
SOUTH CENTRAL NEBRASKA

CITY           SKY/WX    TMP DP  RH WIND       PRES   REMARKS
GRAND ISLAND   CLOUDY    80  65  59 NE8       30.07S
6HR MIN TEMP:  62; 6HR MAX TEMP:  82;

AURORA         MOSUNNY   80  65  60 NE6       30.05F
HASTINGS       PTSUNNY   81  67  62 NE9       30.06F
6HR MIN TEMP:  63; 6HR MAX TEMP:  81;

HEBRON         SUNNY     84  66  55 N7        30.03S
HOLDREGE       CLOUDY    75  66  74 NE7       30.08F
KEARNEY *      CLOUDY    82  21  10 CALM      30.07F
YORK           MOSUNNY   81  66  61 NE9       30.05S
$$

NEZ011>018-030>034-042>045-281900-
NORTHEAST NEBRASKA

CITY           SKY/WX    TMP DP  RH WIND       PRES   REMARKS
NORFOLK        MOSUNNY   80  60  50 NW12      30.06F
6HR MIN TEMP:  63; 6HR MAX TEMP:  81;

ALBION         MOSUNNY   78  65  64 N8        30.06F
BLAIR          MOSUNNY   81  65  58 N7        30.03F
FREMONT        MOSUNNY   81  64  56 NW6       30.04S
TEKAMAH        MOSUNNY   82  64  54 NW9       30.02F
6HR MIN TEMP:  66; 6HR MAX TEMP:  83;

WAYNE          SUNNY     78  61  56 N8        30.06S
$$

NEZ050>053-065>068-078-088>093-281900-
SOUTHEAST NEBRASKA

CITY           SKY/WX    TMP DP  RH WIND       PRES   REMARKS
LINCOLN        MOSUNNY   84  66  54 NE13      30.04S
6HR MIN TEMP:  67; 6HR MAX TEMP:  85;

OMAHA EPPLEY   MOSUNNY   83  65  54 N9        30.01F
6HR MIN TEMP:  70; 6HR MAX TEMP:  83;

BEATRICE       MOSUNNY   84  67  56 NE10      30.02S
FALLS CITY     PTSUNNY   83  70  64 NE9       29.99F
6HR MIN TEMP:  70; 6HR MAX TEMP:  84;

NEBRASKA CITY  MOSUNNY   81  67  63 N10       30.01F
PLATTSMOUTH    MOSUNNY   81  65  59 N5        30.02F
$$

NEZ044-045-051>053-067-281900-
OMAHA AREA

CITY           SKY/WX    TMP DP  RH WIND       PRES   REMARKS
OMAHA EPPLEY   MOSUNNY   83  65  54 N9        30.01F
6HR MIN TEMP:  70; 6HR MAX TEMP:  83;

BLAIR          MOSUNNY   81  65  58 N7        30.03F
FREMONT        MOSUNNY   81  64  56 NW6       30.04S
MILLARD        MOSUNNY   82  65  57 NE3       30.01F
PLATTSMOUTH    MOSUNNY   81  65  59 N5        30.02F
WAHOO          FAIR      81  65  58 NE8       30.03F
$$




USA.gov is the U.S. government's official web portal to all federal, state and local government web resources and services.